Regional Weather Roundup
Issued by NWS

Home | Current Version | Previous Version | Text Only | Print | Product List | Glossary Off
Versions: 1 2 3 4 5 6 7 8 9 10 11 12 13 14 15 16 17 18 19 20 21 22 23 24 25 26 27 28 29 30 31 32 33 34 35 36 37 38 39 40 41 42 43 44 45 46 47 48 49 50

000
ASUS43 KLMK 231210
RWRKY
KENTUCKY REGIONAL WEATHER ROUNDUP
NATIONAL WEATHER SERVICE LOUISVILLE KY
800 AM EDT MON APR 23 2018

NOTE "FAIR" INDICATES FEW OR NO CLOUDS BELOW 12,000 FEET
WITH NO SIGNIFICANT WEATHER AND/OR OBSTRUCTIONS TO VISIBILITY.

KYZ001>023-026-027-061>063-070>075-231300-
WESTERN AND SOUTH CENTRAL KENTUCKY

CITY           SKY/WX    TMP DP  RH WIND       PRES   REMARKS
PADUCAH        CLOUDY    58  56  93 SE12      29.81R FOG
HENDERSON      CLOUDY    55  52  89 E16       29.93S
OWENSBORO      CLOUDY    57  53  86 E15       29.94R
HOPKINSVILLE   CLOUDY    58  58 100 E8        29.89R
BOWLING GREEN  PTSUNNY   57  55  93 E9        29.96R
GLASGOW        CLOUDY    55  52  88 E6        29.98R
$$

KYZ024-025-028>034-038-045-046-053-231300-
NORTH CENTRAL KENTUCKY

CITY           SKY/WX    TMP DP  RH WIND       PRES   REMARKS
LOUISVILLE/SDF LGT RAIN  54  51  90 E13       30.05R
LOUISVILLE/LOU LGT RAIN  53  52  96 NE12      30.05R
FORT KNOX      CLOUDY    53  53 100 NE13      30.01R
$$

KYZ035>037-039>044-047>052-055>060-089>105-231300-
NORTHEAST KENTUCKY

CITY           SKY/WX    TMP DP  RH WIND       PRES   REMARKS
LEXINGTON      RAIN      54  49  83 E8        30.08R
COVINGTON      CLOUDY    55  37  50 E6        30.10R
FRANKFORT      RAIN      52  47  83 E8        30.07R
$$

KYZ054-064>069-076>088-106>120-231300-
SOUTHEAST KENTUCKY

CITY           SKY/WX    TMP DP  RH WIND       PRES   REMARKS
JACKSON        LGT RAIN  55  50  83 VRB5      30.10R
LONDON         RAIN      54  52  93 E5        30.05R
SOMERSET       RAIN      52  52 100 SE5       30.05R
MIDDLESBORO    RAIN      54  52  94 S3        30.09R
MONTICELLO     LGT RAIN  55  52  89 VRB6      30.05R
$$




USA.gov is the U.S. government's official web portal to all federal, state and local government web resources and services.